Regional Weather Roundup
Issued by NWS

Home | Current Version | Previous Version | Text Only | Print | Product List | Glossary On
Versions: 1 2 3 4 5 6 7 8 9 10 11 12 13 14 15 16 17 18 19 20 21 22 23 24 25 26 27 28
000
ASUS45 KSLC 290410
RWRUT

UTAH REGIONAL WEATHER ROUNDUP
NATIONAL WEATHER SERVICE SALT LAKE CITY UT
1000 PM MDT SUN AUG 28 2016

UTZ001>011-023>025-290500-

NORTHERN UTAH

CITY           SKY/WX    TMP DP  RH WIND       PRES   REMARKS
BRIGHAM CITY     N/A     71  40  32 CALM      30.17R
HILL AFB       CLEAR     73  32  22 SE9       30.19R
LOGAN          CLEAR     69  42  37 CALM      30.18R
OGDEN          CLEAR     71  36  27 S7        30.16R
PROVO AIRPORT  CLEAR     72  45  37 NW8       30.17R
SALT LAKE CITY CLEAR     77  33  20 S6        30.15R
VERNAL         CLEAR     70  38  31 NW10      30.20R
WENDOVER       CLEAR     73  32  21 W7        30.15R
HEBER CITY     CLEAR     63  32  31 SE3       30.25R
WEST JORDAN    CLEAR     71  34  25 CALM      30.18S

$$

UTZ012>022-026-027-290500-

SOUTHERN/CENTRAL UTAH

CITY           SKY/WX    TMP DP  RH WIND       PRES   REMARKS
BLANDING       PTCLDY    62  46  54 N9        30.35R
BRYCE CANYON   CLEAR     53  48  83 W6        30.41R
CEDAR CITY     CLEAR     69  46  43 S6        30.25R
MILFORD        CLEAR     69  29  22 NW5       30.19R
MOAB/CYNLANDS  CLEAR     73  42  32 CALM      30.16R
PRICE          PTCLDY    69  31  24 N8        30.26R
ST GEORGE      CLEAR     81  55  41 S6        30.08R

$$

REGIONAL REPORTS     COLORADO/ARIZONA

CITY           SKY/WX    TMP DP  RH WIND       PRES   REMARKS
CRAIG, CO      CLOUDY    67  37  33 E10       30.31R
GRAND JUNCTION CLEAR     69  44  40 S15       30.24R
RIFLE          CLOUDY    62  50  64 CALM      30.30R
MONTROSE       CLOUDY    60  47  61 SE15      30.33F
CORTEZ         CLOUDY    57  49  74 CALM      30.27S
PAGE, AZ       CLEAR     76  43  30 CALM      30.16R
GRAND CANYON   CLEAR     55  49  80 CALM      30.35R
KINGMAN        CLEAR     74  56  53 SE7       30.10R
FLAGSTAFF      CLEAR     52  45  77 CALM      30.35R

$$

REGIONAL REPORTS    NEVADA/IDAHO/WYOMING

CITY           SKY/WX    TMP DP  RH WIND       PRES   REMARKS
LAS VEGAS, NV  CLEAR     91  44  19 CALM      29.97R
ELY            CLEAR     60  24  25 S9        30.28R
ELKO           CLEAR     70  24  17 CALM      30.20R
POCATELLO, ID  CLEAR     64  34  32 S9        30.19R
BURLEY         CLEAR     62  47  57 S5        30.14R
EVANSTON, WY   CLEAR     66  28  24 N6        30.37R
ROCK SPRINGS   CLEAR     67  23  19 W9        30.30R

$$




USA.gov is the U.S. government's official web portal to all federal, state and local government web resources and services.